Other Public Products
Issued by NWS Grand Forks, ND

Home | Current Version | Previous Version | Text Only | Print | Product List | Glossary On
Versions: 1 2 3 4 5 6 7 8 9 10 11 12 13 14 15 16 17 18 19 20 21 22 23 24 25 26 27 28 29 30 31 32 33 34 35 36 37 38 39 40 41 42 43 44 45 46 47 48 49 50
000
FPUS83 KFGF 260031
OPUFGF
PRAIRIE TO PINES WEATHER ROUNDUP
NATIONAL WEATHER SERVICE EASTERN NORTH DAKOTA/GRAND FORKS ND
700 PM CDT TUE APR 25 2017

 **SATELLITE DATA USED TO AUGMENT SKY COVER AT AUTOMATED STATIONS**
 *****  WEATHER ACROSS EASTERN NORTH DAKOTA  *****

CITY           SKY/WX    TMP DP  RH WIND       PRES   REMARKS
GRAND FORKS    CLOUDY    37  29  72 N22       29.88R
6HR MIN TEMP:  35; 6HR MAX TEMP:  38;

GRAND FORKS AF CLOUDY    35  27  74 NE22G29   29.88R WCI  23
GRAND CITY NWS NOT AVBL
BUXTON           N/A     35  31  83 N18         N/A  WCI  24
DEVILS LAKE    CLOUDY    35  28  75 NE13      29.91R
6HR MIN TEMP:  30; 6HR MAX TEMP:  35;

FARGO          CLOUDY    37  30  75 N21G35    29.78S
6HR MIN TEMP:  37; 6HR MAX TEMP:  39;

WAHPETON ARPT  CLOUDY    36  32  87 N21G26    29.72S
$$

 *****  WEATHER ACROSS CENTRAL AND WESTERN NORTH DAKOTA  *****

CITY           SKY/WX    TMP DP  RH WIND       PRES   REMARKS
JAMESTOWN      CLOUDY    32  27  81 N23G29    29.84R WCI  19
6HR MIN TEMP:  31; 6HR MAX TEMP:  32;

BISMARCK       CLOUDY    36  26  67 N13       29.90S
6HR MIN TEMP:  32; 6HR MAX TEMP:  36;

MINOT          CLOUDY    43  26  51 N15       29.93R
6HR MIN TEMP:  36; 6HR MAX TEMP:  43;

MINOT AFB      CLOUDY    42  24  48 NE16      29.93R
6HR MIN TEMP:  36; 6HR MAX TEMP:  42;

GARRISON         N/A     39  25  57 NE12      29.91S
6HR MIN TEMP:  32; 6HR MAX TEMP:  39;

WILLISTON      PTSUNNY   40  25  55 E9        29.98R
6HR MIN TEMP:  37; 6HR MAX TEMP:  42;

DICKINSON      CLOUDY    32  23  69 N15       29.89S WCI  22
6HR MIN TEMP:  27; 6HR MAX TEMP:  32;

HETTINGER      CLOUDY    31  23  72 N15       29.88S WCI  20
6HR MIN TEMP:  27; 6HR MAX TEMP:  31;

$$

 *****  OTHER OBSERVATIONS NORTHEAST NORTH DAKOTA  *****

CITY           SKY/WX    TMP DP  RH WIND       PRES   REMARKS
WALHALLA       NOT AVBL
LANGDON        CLOUDY    37  30  75 NE15      29.91R
CAVALIER       FAIR      37  27  65 NE15      29.93R
GRAFTON        CLOUDY    34  30  86 N17       29.93R WCI  23
CANDO          NOT AVBL
FORT TOTTEN      N/A     35  29  77 NE8       29.95S
ROLLA          CLOUDY    36  25  64 NE20G25   29.94S
RUGBY          NOT AVBL
 ***** THE ABOVE OBSERVATIONS ARE NON NWS ARE NOT QUALITY
        CONTROLLED AND MAY MIS-REPORT RAIN FOR SNOW...
$$

 *****  OTHER OBSERVATIONS SOUTHEAST NORTH DAKOTA *****

CITY           SKY/WX    TMP DP  RH WIND       PRES   REMARKS
COOPERSTOWN    CLOUDY    32  28  86 N21G29    29.86S WCI  20
VALLEY CITY    FLURRIES  32  30  93 N22G29    29.84R WCI  19
OAKES          NOT AVBL
GWINNER        CLOUDY    34  30  86 MISG      29.78R
SHEYENNE NWR     N/A     36  29  75 N15       29.95S
BUFFALO          N/A     34  27  75 S18         N/A  WCI  23
WYNDMERE         N/A     37  34  87 VRB18       N/A
 ***** THE ABOVE OBSERVATIONS ARE NON NWS ARE NOT QUALITY
       CONTROLLED AND MAY MIS-REPORT RAIN FOR SNOW...
$$

  *****  WEATHER ACROSS NORTHERN MINNESOTA  *****

CITY           SKY/WX    TMP DP  RH WIND       PRES   REMARKS
FLAG ISLAND    CLOUDY    30  25  80 NE21G29   29.94R WCI  17
WARROAD        CLOUDY    32  27  80 NE16G29   29.92S WCI  21
ROSEAU         CLOUDY    34  27  75 NE20      29.92R WCI  22
HALLOCK        CLOUDY    36  27  69 NE16      29.92R
THF RVR FALLS  CLOUDY    32  27  81 NE20G26   29.86R WCI  20
6HR MIN TEMP:  32; 6HR MAX TEMP:  35;

HALSTAD          N/A     34  28  79 NE24        N/A  WCI  22
FOSSTON        CLOUDY    34  30  86 N16G24    29.80R WCI  23
BAUDETTE       CLOUDY    31  24  75 NE18G29   29.87R WCI  19
6HR MIN TEMP:  31; 6HR MAX TEMP:  34;

WASKISH        CLOUDY    30  27  86 NE18G24   29.83S WCI  18
CROOKSTON      CLOUDY    36  28  75 NE16G23   29.86F
$$
  *****  WEATHER ACROSS CENTRAL AND WEST MINNESOTA  *****

CITY           SKY/WX    TMP DP  RH WIND       PRES   REMARKS
BEMIDJI        CLOUDY    33  29  86 N13G22    29.78R WCI  24
PARK RAPIDS    CLOUDY    38  30  73 N14G24    29.70S
6HR MIN TEMP:  37; 6HR MAX TEMP:  41;

WADENA         CLOUDY    37  34  87 N15G24    29.68R
DETROIT LAKES  CLOUDY    37  32  81 N10G17    29.73S
MOORHEAD       CLOUDY    36  28  75 N23G31    29.77S
FERGUS FALLS   CLOUDY    39  34  81 N12G20    29.70R
ELBOW LAKE     CLOUDY    40  36  84 N16       29.68R
6HR MIN TEMP:  40; 6HR MAX TEMP:  44;

MORRIS MN      CLOUDY    43  37  81 N20       29.64R
STAPLES        CLOUDY    37  34  87 N14G20    29.67R
WHEATON        CLOUDY    39  34  81 N16       29.72R
$$
  *****  WEATHER ELSEWHERE ACROSS MINNESOTA  *****

CITY           SKY/WX    TMP DP  RH WIND       PRES   REMARKS
DULUTH         CLOUDY    41  40  96 E14       29.68R
6HR MIN TEMP:  41; 6HR MAX TEMP:  59; 6HR PCP:  0.02;

INTRNTL FALLS  CLOUDY    30  24  78 NE10G21   29.85S WCI  21
6HR MIN TEMP:  30; 6HR MAX TEMP:  32;

ELY            CLOUDY    32  30  93 N9G16     29.75S WCI  24
CLOQUET        CLOUDY    43  39  87 NE7       29.68R
BRAINERD       CLOUDY    44  36  73 NE17G26   29.66R
6HR MIN TEMP:  44; 6HR MAX TEMP:  54;

HIBBING        CLOUDY    34  32  92 N15       29.73R WCI  24
6HR MIN TEMP:  34; 6HR MAX TEMP:  48;

ALEXANDRIA     CLOUDY    42  36  79 NE14G24   29.65R
6HR MIN TEMP:  42; 6HR MAX TEMP:  48;

SAINT CLOUD    RAIN      48  46  93 N9        29.60R FOG
6HR MIN TEMP:  49; 6HR MAX TEMP:  63; 6HR PCP:  0.11;

MINNEAPOLIS    RAIN      54  51  90 N6        29.57R FOG
6HR MIN TEMP:  53; 6HR MAX TEMP:  57; 6HR PCP:  0.16;

$$

  *****  WEATHER ACROSS SOUTH DAKOTA  *****

CITY           SKY/WX    TMP DP  RH WIND       PRES   REMARKS
SIOUX FALLS    LGT RAIN  38  38 100 N14G24    29.66R FOG
6HR MIN TEMP:  39; 6HR MAX TEMP:  42; 6HR PCP:  0.19;

BROOKINGS      CLOUDY    36  33  89 N18       29.66R
WATERTOWN      CLOUDY    34  31  88 N21G29    29.69R WCI  22
6HR MIN TEMP:  34; 6HR MAX TEMP:  36;

HURON          CLOUDY    35  32  88 N20G25    29.75R WCI  24
6HR MIN TEMP:  35; 6HR MAX TEMP:  38;

SISSETON         N/A     37  33  85 N23       29.72R
ABERDEEN       CLOUDY    34  26  72 N20G29    29.79R WCI  23
6HR MIN TEMP:  34; 6HR MAX TEMP:  37;

MITCHELL       LGT RAIN  36  34  92 N22       29.73R
PIERRE         LGT SNOW  32  29  88 N15       29.81R FOG     WCI  22
6HR MIN TEMP:  32; 6HR MAX TEMP:  37; 6HR PCP: TRACE;

MOBRIDGE       CLOUDY    34  24  67 N20       29.81S WCI  23
RAPID CITY     FLURRIES  28  25  88 N17       29.84R WCI  16
6HR MIN TEMP:  28; 6HR MAX TEMP:  31; 6HR PCP:  0.04;

$$

  *****  SOME WEATHER IN NEARBY STATES *****

CITY           SKY/WX    TMP DP  RH WIND       PRES   REMARKS
GLASGOW MT     PTSUNNY   44  24  45 SE13G18   29.93R
6HR MIN TEMP:  33; 6HR MAX TEMP:  45;

GREAT FALLS MT CLOUDY    45  37  73 E9        29.79R
6HR MIN TEMP:  39; 6HR MAX TEMP:  53; 6HR PCP:  0.05;

CHEYENNE WY    FAIR      38  26  62 N20G29    29.69R
                                      6HR PCP: TRACE;

SCOTTSBLUFF NE CLOUDY    38  30  73 NE17      29.74R
6HR MIN TEMP:  39; 6HR MAX TEMP:  47; 6HR PCP: TRACE;

OMAHA NE       LGT RAIN  45  41  86 N18G26    29.55R FOG
6HR MIN TEMP:  45; 6HR MAX TEMP:  53; 6HR PCP: TRACE;

DES MOINES IA  CLOUDY    70  51  51 SE5       29.43R
6HR MIN TEMP:  70; 6HR MAX TEMP:  75;

DAVENPORT IA   FAIR      76  42  29 S9        29.46S
6HR MIN TEMP:  71; 6HR MAX TEMP:  80;

CHICAGO IL     CLOUDY    76  47  35 SE18G26   29.53R
6HR MIN TEMP:  74; 6HR MAX TEMP:  79;

EAU CLAIRE WI  LGT RAIN  56  55  97 SE7       29.57R FOG
6HR MIN TEMP:  56; 6HR MAX TEMP:  73; 6HR PCP:  0.35;

LA CROSSE WI   CLOUDY    61  55  81 NW5       29.51F
6HR MIN TEMP:  60; 6HR MAX TEMP:  73; 6HR PCP:  0.05;

$$

  *****  SOME NATIONAL WEATHER *****

CITY           SKY/WX    TMP DP  RH WIND       PRES   REMARKS
LA GUARDIA NY  LGT RAIN  53  50  89 NE28G35   29.89F FOG


USA.gov is the U.S. government's official web portal to all federal, state and local government web resources and services.